Hourly Data Report for September 02, 2017

All times are specified in Local Standard Time (LST). Add 1 hour to adjust for Daylight Saving Time where and when it is observed.

PETAWAWA AWOS 2
ONTARIO

45°57'00.000" N
77°19'00.000" W
130.10 m
6106396
71625
YWA

Download Data

Hourly Data (September 2017)
Hourly Data Report for September 2, 2017
Temp Definition
°C
Dew Point Temp Definition
°C
Rel Hum Definition
%
Wind Dir Definition
10's deg

Wind Spd Definition
km/h
Visibility Definition
km
Stn Press Definition
kPa
Hmdx Definition


Wind Chill Definition


Weather Definition


TIME
00:00 4.5 4.5 100 24 6 14.5 100.76     LegendNANA
01:00 4.8 4.3 97   0 14.5 100.77     LegendNANA
02:00
03:00 4.4 3.9 96   0 14.5 100.78     LegendNANA
04:00 5.7 5.6 99 26 7 0.2 100.78     Drizzle
05:00
06:00 3.7 3.7 100 26 4 0.2 100.82     LegendNANA
07:00 5.3 5.3 100 23 4 0.2 100.84     LegendNANA
08:00 6.9 6.9 100   0 0.2 100.83     LegendNANA
09:00 8.3 8.3 100   0 1.0 100.81     LegendNANA
10:00 12.1 10.6 90 11 7 14.5 100.78     LegendNANA
11:00 14.7 9.5 71 10 9 14.5 100.73     LegendNANA
12:00 16.8 10.1 65 12 15 14.5 100.66     LegendNANA
13:00 17.7 8.0 53 9 13 14.5 100.58     LegendNANA
14:00 18.8 9.0 53 11 13 14.5 100.48     LegendNANA
15:00 19.1 8.4 50 12 15 14.5 100.40     LegendNANA
16:00 19.3 8.2 49 11 13 14.5 100.36     LegendNANA
17:00 19.1 9.1 52 11 11 14.5 100.29     LegendNANA
18:00 18.1 9.9 59 10 9 14.5 100.24     LegendNANA
19:00 17.4 9.7 61 13 13 14.5 100.20     LegendNANA
20:00 15.9 9.7 67 12 11 14.5 100.21     LegendNANA
21:00 15.2 10.0 71 15 13 14.5 100.20     LegendNANA
22:00 14.3 9.6 73 13 7 14.5 100.16     LegendNANA
23:00 13.9 9.1 73 12 11 14.5 100.11     LegendNANA

Notes on Data Quality.

Legend

  • E = Estimated
  • M = Missing
  • NA = Not Available
  • ‡ = Partner data that is not subject to review by the National Climate Archives
Date modified: